{"data":{"norad_id":62481,"epoch":"2026-09-21T07:25:13.793952Z","epoch_age_seconds":104658,"freshness":"FRESH","line1":"1 62481U 24254V   26264.30918743 -.00007218  00000+0 -25330-3 0  9998","line2":"2 62481  43.0049 351.3344 0000929 242.8086 117.2671 15.27545650 97579","mean_motion":15.2754565,"eccentricity":9.29e-5,"inclination_deg":43.0049,"raan_deg":351.3344,"arg_perigee_deg":242.8086,"mean_anomaly_deg":117.2671,"bstar":-0.0002533,"rev_number":9757,"period_min":94.268868495027,"perigee_km":482.51454048059,"apogee_km":483.78936796829,"semimajor_km":6861.2889542244,"source":"CELESTRAK","updated_at":"2026-09-22T09:00:49.615503Z"}}